Wind_Speed
5 4 18 23 18 12 10 18 8 2 13 16 18 18 20 19 18 21 35 32 39 41 43 38 33 29 27 28 25 21 23 24 22 24 30 30 28 25 24 22 22 19 15 14
5 20 14 10 7 14 15 14 16 8 9 11 15 23 24 21 19 29 31 31 36 37 43 38 30 27 23 23 21 21 24 23 23 25 31 35 32 25 21 23 21 18 16 16
11 4 9 17 12 15 16 20 15 12 13 23 13 12 11 13 15 26 26 34 36 32 32 31 29 27 26 23 20 25 25 23 22 24 25 24 22 19 22 19 17 19 17 16
10 9 14 12 22 13 20 9 16 16 10 16 9 18 22 18 23 18 20 29 29 32 36 33 27 29 26 21 22 22 21 20 21 21 20 20 19 23 21 17 14 18 20 19
11 7 2 13 15 14 20 11 15 13 11 16 19 6 26 6 17 14 12 23 32 39 34 33 30 27 24 23 25 20 17 19 19 17 15 19 18 16 13 15 15 13 17 18
14 14 11 9 11 9 5 8 10 9 4 10 10 8 28 15 22 15 6 24 33 38 37 32 22 21 26 25 22 18 18 20 19 18 20 17 18 19 15 14 12 12 12 14
3 10 15 14 12 9 5 2 2 3 6 17 12 9 22 6 3 8 11 22 36 37 29 25 20 28 30 27 22 19 22 24 22 21 22 18 18 16 13 14 13 11 12 14
2 4 6 2 2 2 6 9 5 7 4 7 9 13 17 19 31 33 33 32 38 34 16 20 27 34 32 28 23 24 26 27 25 23 20 16 17 14 13 12 12 10 10 10
2 3 5 9 7 6 5 9 5 5 15 1 7 10 18 21 24 21 24 21 31 22 19 30 35 34 31 27 24 26 31 28 25 22 17 14 15 15 11 8 8 9 10 7
1 3 6 5 4 5 9 3 4 4 6 9 6 8 11 6 10 12 10 16 16 19 28 32 34 32 27 23 25 29 27 26 23 19 13 10 10 8 6 6 8 7 7 5
4 4 4 5 3 5 2 4 4 4 4 10 6 9 6 12 12 15 15 20 29 33 35 37 34 30 26 25 29 27 24 24 21 15 10 11 8 5 5 5 5 6 6 6
4 2 4 10 16 17 7 5 5 4 10 5 10 18 8 10 11 12 10 20 32 39 41 38 35 33 30 30 30 26 23 20 15 11 15 8 8 4 5 5 7 5 6 7
4 3 4 9 3 5 4 3 2 5 6 18 6 8 10 9 15 20 5 20 26 32 35 36 35 34 32 32 29 26 22 18 17 13 15 10 6 4 6 6 6 6 9 11
5 4 6 6 9 6 10 8 6 2 2 10 18 16 22 17 20 19 11 23 32 38 40 40 38 35 33 32 28 25 21 18 18 17 14 10 3 2 7 6 5 6 11 12
5 5 9 14 16 16 17 19 11 8 6 3 6 10 19 19 20 21 18 28 30 32 35 38 40 38 35 33 29 25 22 18 19 18 14 10 5 3 7 6 6 7 11 13
3 3 3 14 19 19 21 19 13 14 11 10 15 17 17 21 22 9 27 34 33 35 36 37 39 37 36 33 29 28 24 21 19 20 15 11 7 7 5 6 7 7 10 14
6 4 2 8 9 4 7 12 13 7 5 3 5 7 11 5 13 9 5 35 36 36 38 41 41 38 36 32 28 29 27 24 21 21 16 11 8 7 4 4 9 9 10 14
7 6 3 6 8 4 2 5 2 4 7 3 8 17 12 1 3 19 10 18 29 35 35 39 40 37 33 31 27 27 27 26 21 20 17 12 10 10 7 4 7 9 11 13
15 6 3 3 4 3 5 5 6 6 2 13 16 11 14 7 19 15 20 3 26 41 40 39 38 36 33 32 29 28 28 28 24 21 18 16 14 11 11 5 7 11 12 13
10 7 4 3 5 3 3 11 20 13 5 17 20 17 3 9 9 4 16 6 21 36 40 39 37 36 33 33 31 29 31 30 23 23 20 17 13 12 13 7 8 12 12 12
2 3 9 9 4 1 12 18 26 7 5 24 25 23 19 7 7 15 10 11 10 34 40 39 40 38 36 35 34 32 31 29 20 23 21 20 17 14 13 8 10 13 12 13
2 4 2 3 2 1 24 22 9 7 14 26 27 18 12 22 24 13 17 22 19 22 36 40 41 39 39 37 35 33 30 24 20 24 23 21 19 18 13 7 11 11 12 13
2 3 3 3 3 1 3 8 12 13 15 16 21 20 23 24 19 16 25 25 24 21 24 35 40 39 40 37 35 32 26 25 24 25 25 20 20 19 13 9 11 11 15 17
4 6 1 3 6 6 6 13 16 19 22 26 23 15 23 23 26 23 25 27 27 27 17 17 30 35 38 38 35 26 25 26 27 27 27 23 21 20 14 8 10 8 14 18
2 8 7 4 5 14 13 24 22 22 23 24 31 26 27 28 28 17 24 30 29 27 21 14 11 26 34 36 37 30 27 28 29 28 29 26 24 21 16 11 12 8 8 11
1 2 4 3 13 6 16 25 23 22 21 26 31 31 24 27 26 19 24 27 28 24 22 19 9 15 32 36 37 33 30 30 31 31 32 30 27 23 18 14 16 14 9 7
Wind_Direction
194 189 220 211 216 236 259 245 268 232 217 228 245 257 261 254 248 261 267 270 267 265 268 279 277 242 251 251 255 265 271 258 249 229 218 205 195 195 196 205 221 235 232 228
197 229 234 246 220 231 249 264 266 290 289 236 246 255 263 264 259 252 258 262 262 273 282 276 237 239 243 255 252 263 255 240 235 230 216 215 213 213 230 232 235 233 236 249
217 219 230 241 239 245 231 236 254 261 294 288 291 285 284 266 252 260 266 270 272 274 281 276 251 242 243 248 255 247 227 227 228 212 204 202 211 220 226 223 227 232 236 246
255 229 254 249 230 230 246 241 238 254 250 258 216 277 268 266 264 264 245 254 264 274 274 274 257 244 240 236 230 220 219 215 204 202 199 202 208 195 196 203 217 225 232 241
231 283 172 236 243 225 252 259 232 237 235 251 262 293 267 250 258 247 248 261 265 266 270 276 258 243 223 214 209 207 206 195 191 188 192 183 184 191 200 207 222 221 226 240
226 231 248 248 265 256 325 245 244 253 234 251 219 199 272 248 246 246 218 247 258 270 278 279 269 218 205 199 197 191 187 182 178 177 179 181 188 194 193 202 211 227 232 253
268 235 237 242 257 270 209 47 245 246 197 236 158 211 237 248 279 223 237 248 258 261 262 260 243 196 191 189 184 178 178 170 169 169 178 182 199 204 205 211 221 233 257 271
256 284 174 33 98 273 215 177 197 195 204 230 275 229 240 232 262 266 262 255 263 266 253 227 198 188 186 182 178 174 173 169 168 174 181 188 196 204 206 216 235 247 259 259
192 252 340 319 308 138 308 222 179 287 273 271 226 274 281 275 275 267 269 255 257 263 230 194 186 182 178 173 174 172 165 168 175 180 181 190 205 216 215 217 241 257 254 239
216 292 254 287 301 241 208 253 177 205 200 240 253 257 234 255 261 266 261 245 220 208 179 179 176 175 169 169 166 165 164 168 179 182 189 189 179 191 216 253 255 231 218 207
309 163 298 347 241 218 273 216 191 161 197 221 256 249 197 264 260 278 296 211 165 170 175 173 173 172 165 164 163 163 160 166 169 170 170 155 154 188 240 235 203 191 200 183
309 156 271 260 267 256 258 255 172 219 238 258 242 253 312 251 278 285 242 165 166 168 168 169 171 165 163 160 163 160 159 162 158 161 161 157 185 203 228 201 188 190 188 166
333 326 324 328 315 44 240 103 4 284 206 238 249 263 226 282 276 280 226 153 155 157 158 165 166 166 164 162 163 160 159 159 162 165 159 178 181 247 188 176 170 182 176 158
249 226 203 224 253 304 290 275 306 84 276 246 243 278 273 271 278 292 156 170 159 162 164 165 166 166 167 167 166 163 161 163 168 160 165 167 183 168 187 176 168 176 176 169
157 232 226 255 265 266 262 265 256 235 234 238 299 297 289 289 281 267 207 175 158 157 158 163 167 169 170 169 170 169 167 167 171 170 173 172 172 165 175 179 168 169 179 176
133 267 303 278 272 257 252 252 236 232 235 248 250 273 275 277 294 272 177 168 164 162 161 165 169 171 173 170 172 173 174 175 173 175 177 184 179 150 132 170 177 172 175 176
180 198 261 273 341 110 229 239 232 231 195 208 243 238 302 309 336 40 206 164 162 161 164 168 174 175 175 173 172 176 179 178 180 185 182 189 169 171 157 134 183 185 179 178
224 173 198 278 280 219 187 59 19 302 236 5 279 259 264 173 358 65 69 177 160 160 165 171 176 178 177 175 174 174 181 183 185 194 189 188 175 183 194 191 189 185 172 183
212 204 259 260 299 258 195 15 343 335 176 21 337 302 175 161 58 15 37 94 169 171 176 179 181 180 178 177 176 176 184 185 187 191 185 188 182 192 196 206 193 186 181 187
182 201 183 307 274 294 145 319 301 282 215 355 337 324 29 351 75 288 8 58 184 180 181 181 184 184 180 180 179 180 186 187 190 190 185 190 192 208 197 200 188 187 195 193
333 219 232 243 261 277 338 310 282 176 333 316 325 340 357 61 84 327 15 35 134 183 187 185 185 185 185 182 183 184 185 190 192 190 196 192 201 207 196 194 184 191 196 192
307 297 298 294 266 331 357 358 54 345 334 331 322 327 345 36 58 9 50 55 59 186 188 188 187 188 187 185 186 186 188 189 186 192 195 195 203 196 194 203 180 188 191 179
305 350 323 352 331 113 68 19 12 351 322 313 318 317 21 30 27 30 47 54 59 72 173 184 188 189 188 188 190 187 187 184 182 192 194 200 202 197 199 204 189 183 187 185
324 352 53 231 172 297 36 22 359 333 323 332 319 334 23 17 17 37 38 48 52 59 86 167 187 188 189 192 195 195 181 184 188 195 196 199 202 195 196 197 195 191 191 193
330 318 307 248 6 353 351 345 337 339 340 318 334 357 10 12 23 31 33 37 44 56 66 119 133 200 199 200 201 195 184 186 192 199 198 199 199 201 195 197 197 176 176 179
12 322 328 320 330 319 296 327 348 344 338 320 342 341 1 4 8 35 38 34 33 36 50 65 164 225 214 208 206 198 193 189 194 201 199 201 199 199 203 205 195 186 175 152
Height
1455 1462 1450 1445 1452 1455 1453 1454 1454 1449 1448 1450 1449 1443 1435 1436 1437 1434 1427 1429 1424 1421 1422 1423 1420 1422 1424 1425 1426 1428 1429 1429 1430 1431 1432 1436 1440 1444 1448 1451 1454 1455 1458 1461
1455 1447 1443 1450 1453 1458 1459 1460 1456 1454 1447 1445 1445 1438 1430 1429 1427 1425 1422 1419 1416 1415 1415 1415 1414 1415 1416 1418 1420 1422 1423 1424 1425 1428 1431 1435 1440 1444 1448 1450 1452 1454 1456 1457
1449 1443 1445 1450 1452 1453 1451 1455 1457 1460 1451 1440 1446 1445 1434 1420 1417 1413 1414 1412 1410 1409 1407 1407 1408 1409 1410 1412 1414 1415 1417 1419 1422 1426 1431 1436 1440 1443 1445 1447 1450 1451 1453 1455
1444 1441 1443 1445 1449 1450 1452 1448 1451 1453 1458 1454 1444 1451 1430 1414 1406 1405 1406 1405 1405 1403 1402 1403 1403 1403 1404 1407 1409 1411 1416 1417 1420 1424 1428 1432 1435 1437 1441 1445 1447 1449 1451 1452
1437 1438 1441 1445 1442 1441 1441 1443 1444 1446 1450 1453 1447 1461 1398 1409 1402 1399 1397 1397 1395 1393 1395 1395 1396 1398 1401 1403 1404 1407 1412 1416 1418 1422 1426 1430 1434 1438 1440 1443 1445 1447 1449 1450
1434 1438 1438 1438 1436 1437 1438 1439 1442 1442 1449 1459 1442 1454 1390 1400 1392 1391 1389 1389 1388 1387 1387 1388 1390 1393 1396 1399 1402 1405 1410 1414 1417 1421 1426 1430 1433 1436 1438 1440 1443 1445 1446 1447
1435 1435 1431 1432 1436 1434 1438 1449 1463 1464 1462 1441 1432 1442 1389 1379 1377 1380 1383 1383 1382 1381 1382 1384 1384 1387 1392 1396 1399 1404 1409 1412 1416 1421 1426 1429 1433 1435 1437 1439 1441 1442 1443 1443
1440 1443 1427 1425 1432 1437 1437 1443 1453 1456 1457 1440 1423 1420 1386 1387 1377 1378 1374 1376 1374 1374 1376 1378 1380 1382 1387 1392 1397 1402 1407 1410 1416 1421 1425 1429 1431 1433 1435 1438 1439 1440 1441 1441
1441 1436 1426 1425 1426 1432 1432 1434 1430 1440 1430 1442 1419 1398 1381 1373 1373 1372 1368 1370 1366 1369 1370 1373 1376 1381 1388 1391 1396 1401 1405 1411 1416 1420 1424 1428 1430 1432 1434 1436 1437 1438 1438 1438
1437 1442 1428 1426 1424 1421 1426 1423 1437 1440 1446 1444 1417 1406 1391 1376 1371 1364 1364 1360 1359 1364 1368 1372 1377 1382 1387 1393 1397 1404 1406 1410 1416 1419 1424 1427 1429 1431 1433 1434 1435 1436 1436 1437
1439 1441 1435 1430 1425 1423 1426 1425 1425 1427 1429 1425 1422 1396 1374 1369 1363 1358 1352 1347 1353 1359 1364 1370 1376 1383 1388 1393 1398 1404 1407 1411 1416 1420 1424 1427 1428 1431 1432 1433 1434 1435 1436 1436
1442 1443 1443 1433 1422 1419 1421 1423 1426 1432 1425 1416 1404 1380 1364 1363 1358 1355 1352 1347 1351 1356 1362 1367 1376 1382 1387 1392 1399 1404 1407 1412 1416 1420 1424 1426 1428 1430 1431 1432 1434 1434 1435 1436
1443 1446 1448 1434 1417 1416 1420 1419 1422 1422 1415 1407 1417 1376 1362 1363 1358 1351 1357 1350 1354 1359 1364 1368 1378 1383 1388 1393 1399 1403 1407 1412 1416 1421 1424 1426 1428 1429 1431 1432 1433 1434 1435 1437
1442 1445 1442 1449 1430 1427 1426 1418 1419 1422 1424 1403 1392 1386 1367 1364 1357 1349 1354 1355 1354 1358 1362 1369 1377 1382 1388 1393 1398 1403 1407 1412 1417 1421 1424 1426 1428 1429 1431 1432 1432 1433 1435 1437
1441 1441 1432 1427 1423 1422 1419 1414 1413 1417 1416 1418 1398 1398 1377 1368 1357 1348 1349 1354 1355 1359 1363 1369 1374 1380 1387 1391 1398 1403 1407 1412 1416 1421 1424 1426 1428 1429 1430 1431 1432 1433 1435 1438
1438 1435 1433 1425 1415 1412 1410 1405 1408 1405 1405 1404 1401 1393 1369 1360 1350 1340 1340 1345 1350 1355 1362 1368 1375 1380 1387 1390 1396 1401 1407 1412 1416 1421 1423 1426 1428 1429 1430 1431 1432 1434 1436 1437
1437 1437 1432 1417 1411 1397 1407 1396 1396 1392 1391 1391 1394 1380 1367 1359 1356 1342 1344 1337 1345 1352 1360 1365 1372 1378 1384 1389 1395 1400 1405 1411 1415 1419 1423 1425 1427 1428 1429 1430 1432 1434 1436 1437
1425 1429 1427 1420 1411 1405 1389 1388 1385 1387 1380 1381 1380 1372 1369 1358 1366 1345 1347 1350 1348 1352 1361 1366 1372 1378 1383 1389 1395 1400 1405 1410 1414 1418 1421 1424 1427 1428 1429 1431 1432 1434 1436 1437
1415 1421 1425 1413 1398 1389 1383 1396 1395 1389 1379 1381 1382 1358 1355 1357 1350 1353 1351 1352 1352 1352 1358 1363 1370 1375 1381 1387 1393 1399 1404 1409 1413 1416 1420 1424 1426 1427 1429 1431 1431 1434 1435 1437
1407 1411 1422 1413 1401 1386 1395 1397 1394 1395 1383 1383 1382 1369 1354 1355 1361 1368 1360 1353 1352 1354 1357 1362 1369 1375 1380 1385 1392 1397 1402 1407 1411 1415 1419 1422 1425 1427 1429 1430 1430 1433 1435 1437
1412 1414 1411 1407 1402 1392 1393 1387 1379 1379 1396 1392 1383 1372 1366 1363 1359 1366 1363 1357 1351 1355 1357 1360 1365 1370 1376 1383 1389 1395 1400 1404 1409 1414 1418 1421 1424 1426 1428 1429 1430 1432 1434 1437
1419 1412 1402 1403 1390 1392 1396 1372 1382 1401 1395 1389 1386 1383 1378 1365 1364 1373 1365 1359 1354 1354 1356 1360 1365 1370 1377 1382 1388 1393 1398 1404 1408 1412 1417 1420 1423 1426 1428 1429 1430 1432 1434 1436
1416 1419 1415 1415 1410 1408 1404 1402 1401 1404 1399 1392 1388 1384 1371 1367 1374 1372 1366 1361 1359 1355 1356 1361 1365 1370 1377 1382 1386 1391 1396 1402 1407 1411 1415 1419 1422 1425 1428 1429 1430 1431 1433 1436
1419 1418 1416 1419 1414 1411 1403 1399 1397 1400 1395 1385 1384 1388 1377 1372 1370 1365 1366 1365 1361 1357 1360 1364 1366 1372 1378 1383 1386 1390 1394 1400 1405 1409 1414 1418 1421 1425 1427 1429 1430 1431 1432 1435
1426 1419 1416 1412 1406 1397 1395 1398 1395 1390 1388 1383 1378 1374 1365 1371 1370 1372 1365 1361 1362 1364 1365 1365 1367 1373 1377 1382 1387 1390 1393 1398 1402 1407 1411 1415 1419 1423 1426 1429 1430 1432 1433 1434
1425 1422 1415 1408 1408 1409 1402 1399 1393 1390 1383 1380 1377 1372 1369 1372 1373 1372 1367 1365 1363 1362 1363 1362 1363 1372 1376 1381 1385 1389 1392 1395 1400 1403 1408 1413 1417 1421 1424 1427 1430 1432 1435 1437